Terminal Aerodrome Forecast
Issued by NWS

Home | Current Version | Previous Version | Text Only | Print | Product List | Glossary On
Versions: 1 2 3 4 5 6 7 8 9 10 11 12 13 14 15 16 17 18 19 20
000
FTAK31 PAJN 230500
TAFAYA
TAF
PAYA 230520Z 2306/2406 26008KT P6SM SCT100
     FM230900 12004KT P6SM OVC100
     FM231500 09004KT P6SM VCSH BKN050 OVC080
     FM231800 12006KT 6SM -RA BKN025 OVC050
     FM240300 14006KT P6SM -RA SCT025 OVC040
      AMD LTD TO CLD VIS AND WIND 2306/2310=

USA.gov is the U.S. government's official web portal to all federal, state and local government web resources and services.